Content
SEND FEEDBACK

Daily
Averages
Monthly
Summary
Italy

FLORENCE - AIRPORT, ITALY


Home > Europe > Italy
Elevation: 125 feet     Latitude: 43 48N     Longitude: 011 12E

WEATHER
 
SELECT A DAY
Number of Records: 251,333;   Date Range: 7/1/96 - 12/20/14
 
SHARE

PRINT THIS DATA

[ ← Previous Day ]
WEATHER ALMANAC - MARCH 14, 2013
[ Next Day → ]
[ °C ]   °F
Weather ElementAverageHighLow
Temperature44.9 °F50 °F (8:50 am)39.2 °F (3:20 am)
Dewpoint37.4 °F41 °F (7:50 am)33.8 °F (6:50 pm)
Humidity76.1 %100 % (3:20 am)58 % (1:50 pm)
Barometer29.27 in29.39 in (11:20 pm)29.21 in (6:20 am)
Wind Speed6.3 mph11.5 mph (8:20 am)
Wind Gust21.9 mph (9:20 am)
Weather ElementAverage
Visibility5.2 mi
Wind DirectionESE (101.5 °)

Weather ElementTotal
Precipitation---
Heating Degree Days20.4 (Base 65)
Averaged from 47 records on March 14, 2013
WEATHER CONDITIONS BREAKOUT
WIND DIRECTION BREAKOUT
WEATHER BY HOUR - MARCH 14, 2013
[ °C ]   °F
Local TimeTemperatureDewpointHumidityBarometerVisibilityWind DirectionWind SpeedGust SpeedPrecipitationEventsConditions
12:50 AM41.0 °F39.2 °F93 %29.30 in0.2 miVariable1.2 mphFogFog
1:20 AM41.0 °F39.2 °F93 %29.27 in3.7 miVariable1.2 mphFogPatches of Fog
1:50 AM41.0 °F39.2 °F93 %29.27 in3.7 miVariable1.2 mphFogPatches of Fog
2:20 AM41.0 °F39.2 °F93 %29.27 in3.1 miVariable1.2 mphScattered Clouds
2:50 AM41.0 °F39.2 °F93 %29.27 in3.1 miVariable2.3 mphScattered Clouds
3:20 AM39.2 °F39.2 °F100 %29.27 in2.8 miCalmMostly Cloudy
3:50 AM41.0 °F39.2 °F93 %29.24 in2.5 miVariable1.2 mphMostly Cloudy
4:20 AM39.2 °F39.2 °F100 %29.24 in2.2 miVariable2.3 mphMostly Cloudy
4:50 AM39.2 °F39.2 °F100 %29.24 in0.3 miVariable2.3 mphFogFog
5:20 AM39.2 °F39.2 °F100 %29.24 in2.2 miVariable3.5 mphMostly Cloudy
5:50 AM39.2 °F39.2 °F100 %29.24 in2.2 miNorth (10°)1.2 mphMostly Cloudy
6:20 AM39.2 °F39.2 °F100 %29.21 in2.2 miVariable2.3 mphScattered Clouds
6:50 AM41.0 °F39.2 °F93 %29.21 in5.0 miVariable3.5 mphScattered Clouds
7:20 AM41.0 °F39.2 °F93 %29.21 in6.2 miVariable4.6 mphScattered Clouds
7:50 AM48.2 °F41.0 °F76 %29.21 in6.2 miNNW (340°)5.8 mphScattered Clouds
8:20 AM48.2 °F41.0 °F76 %29.21 in6.2 miNNW (340°)11.5 mphScattered Clouds
8:50 AM50.0 °F41.0 °F71 %29.21 in6.2 miNW (320°)8.1 mphScattered Clouds
9:20 AM50.0 °F41.0 °F71 %29.21 in6.2 miNorth (350°)10.4 mph21.9 mphScattered Clouds
9:50 AM50.0 °F39.2 °F66 %29.21 in6.2 miNorth (350°)10.4 mphScattered Clouds
10:20 AM50.0 °F39.2 °F66 %29.24 in6.2 miNNW (340°)10.4 mphMostly Cloudy
10:50 AM48.2 °F39.2 °F71 %29.24 in6.2 miNorth (350°)9.2 mphMostly Cloudy
11:20 AM48.2 °F39.2 °F71 %29.24 in6.2 miNorth (360°)8.1 mphMostly Cloudy
11:50 AM48.2 °F37.4 °F66 %29.24 in6.2 miNorth (10°)9.2 mphMostly Cloudy
12:20 PM48.2 °F37.4 °F66 %29.24 in6.2 miNorth (10°)10.4 mphMostly Cloudy
12:50 PM48.2 °F37.4 °F66 %29.24 in6.2 miNorth (10°)8.1 mph19.6 mphMostly Cloudy
1:20 PM48.2 °F37.4 °F66 %29.24 in6.2 miNorth (360°)5.8 mphMostly Cloudy
1:50 PM50.0 °F35.6 °F58 %29.24 in6.2 miNNW (340°)9.2 mphMostly Cloudy
2:20 PM50.0 °F37.4 °F62 %29.24 in6.2 miNorth (350°)6.9 mphMostly Cloudy
2:50 PM50.0 °F35.6 °F58 %29.24 in6.2 miVariable5.8 mph19.6 mphScattered Clouds
3:20 PM50.0 °F37.4 °F62 %29.27 in6.2 miNNE (20°)6.9 mphScattered Clouds
3:50 PM48.2 °F35.6 °F62 %29.27 in6.2 miNNE (30°)10.4 mphScattered Clouds
4:20 PM48.2 °F35.6 °F62 %29.27 in6.2 miNE (50°)9.2 mphMostly Cloudy
4:50 PM48.2 °F35.6 °F62 %29.27 in6.2 miNE (40°)5.8 mphMostly Cloudy
5:20 PM46.4 °F35.6 °F66 %29.30 in6.2 miNE (50°)5.8 mphScattered Clouds
5:50 PM46.4 °F35.6 °F66 %29.30 in6.2 miNNE (20°)8.1 mphScattered Clouds
6:20 PM44.6 °F35.6 °F71 %29.30 in6.2 miNNE (30°)11.5 mphScattered Clouds
6:50 PM44.6 °F33.8 °F66 %29.33 in6.2 miNNE (20°)9.2 mphPartly Cloudy
7:20 PM44.6 °F33.8 °F66 %29.33 in6.2 miNNE (20°)6.9 mphPartly Cloudy
7:50 PM44.6 °F35.6 °F71 %29.33 in6.2 miNNE (20°)8.1 mphPartly Cloudy
8:20 PM42.8 °F35.6 °F76 %29.33 in6.2 miNNE (30°)6.9 mphPartly Cloudy
8:50 PM44.6 °F35.6 °F71 %29.33 in6.2 miNorth (360°)5.8 mphPartly Cloudy
9:20 PM44.6 °F35.6 °F71 %29.36 in6.2 miNE (50°)8.1 mphScattered Clouds
9:50 PM42.8 °F35.6 °F76 %29.36 in6.2 miNE (50°)5.8 mphScattered Clouds
10:20 PM44.6 °F33.8 °F66 %29.36 in6.2 miNE (40°)11.5 mphScattered Clouds
10:50 PM42.8 °F33.8 °F70 %29.36 in6.2 miNE (40°)10.4 mphPartly Cloudy
11:20 PM42.8 °F33.8 °F70 %29.39 in6.2 miNE (40°)4.6 mphScattered Clouds
11:50 PM42.8 °F33.8 °F70 %29.39 in6.2 miNNE (20°)4.6 mphScattered Clouds
Hourly data recorded from LIRQ, located miles away from Florence - Airport, Italy







STORIES FROM OUR PARTNERS